Presure
166 199 199 203 183 213 196 201 167 224 220 217 214 217 185 198 217 229 204 143 143 145 193 162 153 154 150 148 153 158 157 139 154 156 144 127 129 160 150 150 153 248 237 276
181 184 159 199 210 210 200 199 204 211 216 145 221 150 159 223 187 205 152 153 190 156 163 155 148 147 310 142 138 138 142 141 162 140 135 137 284 292 293 174 267 265 296 280
183 184 172 171 173 202 205 201 207 204 216 208 205 132 216 206 139 212 159 215 203 164 156 143 159 141 262 196 259 269 263 214 200 240 195 264 165 154 146 158 267 235 238 236
142 149 191 169 205 200 170 200 213 208 215 225 214 219 227 176 170 227 136 193 245 257 202 132 136 158 163 151 196 221 212 247 259 209 205 235 227 217 250 222 277 262 157 166
189 185 185 202 188 188 204 206 202 221 208 211 216 209 212 222 219 213 164 226 225 151 143 242 168 198 166 145 165 146 153 180 285 144 141 245 237 235 234 236 210 266 248 209
189 193 182 143 188 193 192 205 227 217 217 221 224 217 214 214 209 221 223 225 232 151 257 158 156 176 133 152 141 146 136 150 143 156 159 150 152 153 162 193 231 282 273 153
194 195 182 185 198 203 201 198 225 203 215 212 219 217 209 187 212 225 223 217 235 236 262 249 245 227 240 159 200 245 185 150 232 165 156 264 147 143 149 148 192 154 161 256
189 182 204 184 178 197 207 218 222 206 210 220 225 199 211 224 203 211 209 231 243 232 259 253 243 248 240 247 245 209 228 205 272 244 242 206 268 162 225 148 167 147 143 138
188 185 187 196 192 203 218 204 227 234 222 225 222 223 224 232 231 225 234 262 246 260 252 251 245 241 244 250 237 248 256 249 250 262 261 182 229 244 295 275 263 170 240 143
194 115 152 153 206 218 212 137 219 204 213 143 157 142 166 143 171 210 247 195 253 257 236 254 245 242 239 248 242 237 246 246 239 252 255 242 267 238 232 178 269 274 230 153
97 199 173 217 233 226 214 126 91 104 118 130 151 185 194 297 254 210 259 271 258 279 237 256 249 242 240 222 229 243 235 249 234 232 249 244 253 253 262 264 231 332 270 182
205 212 222 219 149 133 113 200 112 228 231 203 245 164 305 259 265 242 246 246 253 217 237 273 259 245 254 239 240 234 232 236 248 243 225 238 238 262 253 249 248 271 272 280
116 229 217 208 225 218 227 236 238 194 250 264 134 268 182 334 142 300 232 240 202 240 276 239 239 252 153 251 233 232 235 234 235 235 245 233 234 229 224 266 247 246 264 238
205 207 234 208 220 236 254 100 335 135 285 354 283 199 314 316 357 349 337 322 176 293 273 255 235 236 264 252 238 229 236 242 225 238 228 244 231 232 249 220 238 218 252 242
230 238 135 263 258 182 218 148 144 317 296 196 229 90 391 95 335 366 140 340 332 317 277 248 213 233 271 203 208 236 238 246 233 224 239 224 239 248 242 240 237 225 221 225
296 306 280 151 133 227 218 358 387 396 178 395 219 189 193 233 263 234 328 351 346 167 272 297 240 213 248 245 234 175 237 236 223 226 226 236 237 213 227 250 235 240 221 227
277 262 382 378 373 390 384 372 381 375 271 379 140 373 329 134 383 132 387 146 347 323 290 304 247 248 254 185 241 160 255 251 234 232 243 231 244 227 239 243 244 245 259 194
307 236 293 288 347 372 372 376 371 287 368 115 132 326 146 360 209 257 449 379 406 326 164 299 299 267 262 276 229 222 248 264 244 234 228 231 247 232 229 260 228 232 260 254
370 324 370 245 341 384 358 357 330 128 145 343 116 250 354 354 312 286 454 445 388 346 308 299 292 152 262 251 223 273 260 234 245 244 242 247 228 231 241 223 231 239 249 242
133 231 387 381 384 358 250 359 358 366 336 303 349 346 349 112 110 273 364 439 197 348 318 316 306 287 266 276 221 187 268 239 249 163 169 234 240 227 234 244 258 235 257 234
406 145 402 177 132 290 396 374 116 151 135 343 90 96 313 340 257 369 201 397 406 262 320 302 139 213 276 233 207 235 258 243 245 250 232 243 240 245 266 245 240 256 232 251
412 406 213 396 408 283 393 386 371 357 341 116 255 340 339 336 141 151 357 383 386 255 334 128 134 290 259 286 182 214 217 264 257 241 240 243 233 244 246 262 233 237 243 246
405 402 404 404 394 434 427 220 426 201 358 313 343 133 330 322 143 149 283 148 327 174 308 202 202 271 290 250 231 252 259 197 192 185 190 244 238 247 253 250 249 245 242 253
436 439 421 423 419 411 421 463 455 400 337 354 339 133 327 323 251 342 355 363 259 311 307 326 314 253 300 297 172 252 168 170 212 249 260 255 249 261 262 255 258 256 256 241
418 435 431 450 432 429 402 390 390 442 397 330 319 333 132 161 190 356 345 348 322 308 309 302 295 292 268 276 290 292 272 267 251 272 236 245 270 260 257 250 265 260 260 259
424 423 433 427 413 438 431 416 391 443 265 330 323 324 320 319 333 332 259 320 329 318 306 313 310 306 295 287 225 235 268 277 259 269 258 251 261 261 259 261 262 258 253 240
410 413 418 424 420 431 428 442 422 297 271 323 326 310 341 277 332 320 330 327 207 320 313 313 311 304 306 302 291 289 292 260 272 280 272 263 269 275 277 272 271 277 277 277
Wind_Speed
28 59 59 61 43 67 43 55 33 65 61 52 42 46 24 32 31 43 29 36 37 38 30 36 38 39 39 41 44 45 46 52 49 50 55 57 58 54 56 55 59 32 40 34
55 47 43 65 70 68 52 49 55 61 63 37 61 38 40 55 28 36 39 39 31 37 39 40 42 43 25 48 49 51 52 55 48 58 60 61 25 27 19 47 28 34 19 25
62 49 47 50 45 63 66 54 61 57 63 55 55 48 56 37 47 46 38 50 42 40 42 46 43 48 25 37 28 24 25 36 40 29 39 28 48 54 57 46 26 36 29 27
49 51 72 54 79 71 44 56 69 63 64 69 64 66 64 44 46 61 51 46 63 60 42 55 55 48 49 46 34 36 35 27 27 40 41 32 36 39 32 35 26 27 48 47
64 56 65 83 75 60 79 76 58 72 61 63 66 62 65 61 61 58 49 59 58 52 55 43 46 46 58 53 47 50 48 44 27 53 54 34 33 35 35 35 37 29 33 40
66 70 61 57 75 84 75 80 84 76 72 73 73 65 70 70 50 62 64 66 62 56 56 55 56 49 63 53 57 55 61 54 58 56 53 52 52 52 50 41 37 21 27 49
81 75 67 78 90 94 86 71 87 72 74 69 73 71 58 57 67 72 66 57 67 61 54 51 46 44 36 62 46 35 48 59 34 56 60 35 54 54 55 54 44 52 47 28
82 70 85 85 83 89 95 92 92 73 77 80 82 65 66 77 70 67 65 71 71 60 55 51 49 45 39 38 37 49 38 42 35 32 31 43 35 58 39 58 57 55 52 50
92 83 91 95 85 100 99 83 98 97 93 93 79 76 79 83 82 78 82 80 73 60 56 56 50 48 43 41 40 34 35 31 30 32 36 50 34 30 27 29 29 61 32 57
102 21 63 73 108 104 101 33 98 89 90 21 39 40 55 36 55 70 83 48 71 66 63 58 56 50 47 43 41 39 34 33 35 29 28 35 28 33 34 52 31 33 38 58
42 109 85 115 115 112 105 21 22 22 43 38 47 64 72 92 78 58 81 72 68 64 63 60 60 54 50 49 44 46 35 36 36 37 31 31 31 31 27 27 36 29 35 53
103 118 110 110 46 35 28 88 37 104 99 81 102 41 93 78 80 71 73 70 68 53 63 64 65 58 56 51 45 46 41 37 37 35 39 33 34 28 29 32 32 25 26 27
33 115 118 99 112 111 112 116 114 74 109 104 42 99 41 89 46 79 69 69 67 66 68 68 66 63 59 54 51 47 46 41 38 37 36 35 35 37 39 27 32 31 27 37
109 105 119 103 98 116 118 21 103 23 100 85 92 47 71 72 80 80 74 74 60 66 71 71 66 65 64 55 52 54 50 46 44 44 37 38 39 38 33 42 37 45 33 37
126 128 58 121 116 68 91 37 41 90 94 65 55 19 72 22 64 71 40 70 69 67 68 70 67 68 68 47 52 57 53 50 45 47 49 41 42 41 39 37 40 43 44 43
125 125 126 61 46 86 80 83 74 73 46 67 38 52 53 59 48 44 52 62 61 45 65 60 68 60 69 67 60 55 57 55 54 50 47 49 47 49 43 46 43 43 48 48
112 113 82 81 78 73 72 70 69 69 73 61 44 58 51 38 48 50 48 50 55 59 66 64 66 69 72 61 65 51 56 62 54 54 52 51 54 47 48 48 48 47 48 59
103 89 62 88 68 69 66 65 65 65 64 21 24 49 50 46 48 33 37 41 45 56 41 62 62 70 72 72 69 66 59 57 58 56 59 58 55 51 51 53 53 51 56 53
76 70 79 60 66 63 60 61 57 41 30 50 30 45 41 39 35 32 24 30 38 44 52 59 61 37 68 69 64 63 62 63 62 61 64 58 59 56 56 52 53 55 58 53
43 56 69 69 64 57 40 58 55 53 49 44 43 40 38 40 36 26 25 23 43 40 46 49 55 61 66 70 47 44 63 62 64 40 43 61 66 59 58 60 66 56 65 51
56 50 54 44 24 42 50 51 36 50 27 42 23 31 35 34 30 17 39 24 27 30 45 50 16 39 62 54 49 61 67 65 66 63 66 64 67 68 67 61 59 67 57 65
49 50 36 52 50 41 47 48 49 47 41 33 40 37 34 32 26 35 26 23 26 28 40 27 23 44 54 66 42 52 51 70 71 64 67 69 64 64 66 71 58 62 63 66
53 52 53 51 48 53 43 38 43 38 39 48 39 21 33 33 25 37 23 29 27 29 38 26 32 54 56 53 55 63 71 45 43 45 42 68 61 69 71 68 65 63 63 74
57 54 56 53 48 44 39 39 43 41 42 38 39 32 34 33 35 23 25 24 23 28 32 39 43 40 54 60 52 63 28 30 48 65 74 71 65 76 73 70 74 76 79 68
48 49 50 50 47 41 43 42 41 43 38 42 41 37 38 47 45 21 27 30 36 39 41 45 48 51 57 57 61 68 69 70 67 78 57 58 73 74 74 68 85 82 81 81
42 43 42 41 39 38 41 41 43 35 30 40 39 39 36 34 31 30 35 37 39 46 48 51 55 56 57 60 45 50 60 67 67 72 64 59 69 74 75 78 80 79 76 68
33 33 34 35 35 38 39 39 41 28 22 36 38 37 39 30 38 36 40 42 34 50 51 53 56 55 58 60 58 59 64 58 64 72 69 65 72 80 83 82 84 87 87 86
Wind_Direction
304 342 340 340 322 345 344 349 310 349 350 354 354 351 301 305 336 344 316 248 250 253 278 253 250 246 241 249 256 255 253 256 254 255 257 271 273 262 264 265 260 277 274 294
320 325 294 333 339 340 333 343 344 345 345 266 343 267 270 341 292 309 259 256 292 254 261 253 249 250 325 252 251 253 256 258 257 262 264 266 292 283 299 264 277 283 287 305
324 325 318 302 290 335 334 335 338 340 337 339 328 260 334 319 254 327 270 320 302 262 255 249 260 255 315 270 286 297 293 281 272 290 268 278 261 263 263 261 263 275 277 284
293 296 328 309 325 330 301 327 329 333 332 330 331 329 329 295 291 328 260 295 326 325 291 258 252 264 259 256 270 275 270 281 285 273 275 281 281 277 284 264 261 284 269 264
320 321 320 322 313 318 321 321 325 323 327 327 325 324 320 322 322 316 275 318 311 261 258 309 267 274 262 261 264 257 264 269 289 258 260 281 276 278 280 284 270 258 264 265
311 316 314 291 312 313 314 318 315 319 321 319 319 319 318 315 305 314 313 312 311 261 308 263 261 268 260 261 261 263 263 263 262 268 263 264 271 274 274 272 278 266 253 275
310 311 310 302 311 309 313 317 311 311 316 315 314 311 306 291 307 309 308 300 303 303 299 300 301 292 294 263 273 295 272 265 284 270 270 281 265 267 272 274 275 274 273 270
306 303 305 304 303 308 307 310 307 312 310 309 309 296 302 304 295 297 295 297 296 294 292 290 291 294 290 295 296 278 284 277 306 288 287 276 277 269 269 269 270 273 273 269
303 304 301 302 303 303 306 309 303 301 305 304 302 301 300 299 299 296 297 294 288 284 282 281 281 284 286 289 284 293 300 294 294 297 291 272 278 282 267 263 263 268 262 273
298 271 290 296 302 303 304 275 300 300 301 277 285 285 290 281 291 291 294 277 280 279 279 271 274 276 277 281 283 278 290 287 283 294 290 284 289 277 277 272 269 262 268 273
268 296 295 297 291 295 298 278 285 282 279 278 283 292 290 292 290 285 288 279 278 267 274 264 266 267 271 270 272 278 274 285 275 276 288 284 284 283 283 280 272 269 273 273
294 293 295 296 283 280 273 291 265 294 296 294 294 280 290 287 285 284 280 276 276 267 268 248 259 261 258 263 262 267 266 272 281 275 272 281 276 294 282 279 279 281 279 277
277 287 293 295 290 292 293 291 291 287 291 289 250 290 276 280 258 277 273 272 274 269 257 266 265 256 265 250 256 258 264 265 267 271 277 272 275 275 273 290 282 274 287 276
287 286 287 286 284 289 289 275 290 243 288 282 287 280 273 272 271 270 266 265 263 254 254 258 263 262 250 249 249 256 258 263 259 271 260 278 269 271 276 271 277 268 281 276
287 287 281 285 285 282 287 289 289 286 287 277 274 308 281 316 275 270 296 264 260 253 248 254 260 260 246 259 257 253 254 256 255 256 272 256 279 283 275 274 274 272 273 275
285 286 287 263 274 286 287 283 282 282 268 285 289 272 274 278 280 287 272 262 259 293 245 250 250 258 258 254 252 274 251 255 254 256 259 268 273 261 264 286 272 279 270 273
284 285 281 280 281 281 282 283 283 282 283 285 258 286 285 295 278 300 266 297 256 250 244 246 246 251 254 276 247 279 242 249 255 259 267 263 272 262 276 277 279 281 288 273
283 281 278 286 276 280 282 283 283 281 286 266 273 284 283 280 287 279 273 259 254 248 263 242 239 244 248 240 254 255 251 241 250 255 259 263 269 266 268 275 274 277 285 282
279 276 278 272 279 281 279 278 279 268 275 280 297 287 279 278 280 280 289 268 252 248 246 243 241 295 245 248 259 240 243 257 254 251 254 258 263 265 273 275 272 280 284 282
240 266 277 279 282 281 276 275 277 277 271 275 278 277 277 270 286 280 276 285 287 260 243 242 240 240 241 236 253 277 240 258 252 282 278 259 261 268 271 272 274 280 281 280
274 258 274 276 251 273 275 272 294 280 283 269 299 303 274 268 272 267 297 269 249 245 235 236 263 249 239 248 265 255 247 252 256 251 262 261 264 266 269 272 276 278 279 284
273 272 271 269 270 266 266 266 265 266 265 275 280 264 263 261 282 290 250 255 245 253 236 277 281 234 245 237 289 263 254 249 251 264 265 266 276 275 278 270 279 282 287 288
267 266 265 265 266 271 264 264 258 272 254 260 254 272 257 257 290 290 245 260 234 265 239 249 272 242 237 250 253 245 247 257 265 270 269 268 276 274 273 275 279 283 287 289
270 263 260 259 256 256 253 267 254 246 250 243 248 263 250 252 264 234 231 231 245 226 227 224 228 236 232 235 285 254 285 297 267 267 260 267 274 270 272 282 280 284 286 285
268 269 268 259 256 249 248 245 248 244 235 248 251 244 264 263 269 230 221 220 218 226 226 229 236 238 247 245 239 240 246 250 255 252 271 275 267 273 277 281 278 281 285 288
270 271 272 268 260 263 250 242 239 250 244 240 244 245 240 239 232 223 245 221 222 221 231 227 228 231 235 243 266 263 257 252 254 259 269 275 274 274 277 279 283 284 285 283
274 272 269 268 265 259 247 240 231 237 240 223 236 242 227 234 229 232 223 224 248 227 232 234 234 237 236 241 248 250 249 257 261 259 265 269 271 271 272 276 279 281 282 284